DateTimeUTC,F1_A11,F1_S11,BsB_S11,BsG_S11,BsR_S11,BbsB_S11,BbsG_S11,BbsR_S11,BaB_A11,BaG_A11,BaR_A11,Tu_S11,T_S11,Uu_S11,U_S11,P_S11,T1_A11
2021-07-06T02:00:00Z,00000200,20000000,,,,,,,-000.01,-001.08,-000.29,19.5,26.3,04.5,03.0,0663.8,31.2
2021-07-06T02:01:00Z,00000200,20000000,,,,,,,-000.30,0000.33,-000.10,19.5,26.3,04.5,03.0,0663.8,31.2
2021-07-06T02:02:00Z,00000200,20000000,,,,,,,-000.47,-000.20,-000.26,19.4,26.3,04.2,02.8,0663.8,31.2
2021-07-06T02:03:00Z,00000200,60000000,,,,,,,-000.18,-000.22,-000.15,19.4,26.3,04.3,02.8,0663.8,31.2
2021-07-06T02:04:00Z,00000200,40000000,0000.04,0000.28,-000.16,0000.34,-000.13,-000.23,0000.44,-000.06,-000.04,19.4,26.0,03.9,02.6,0664.7,31.2
2021-07-06T02:05:00Z,00000200,00000000,0000.21,-000.29,-000.09,0000.28,-000.00,0000.02,-000.04,-000.25,0000.25,19.4,25.9,03.9,02.6,0664.7,31.2
2021-07-06T02:06:00Z,00000200,00000000,-000.01,-000.09,0000.06,0000.11,-000.08,0000.25,0000.20,0000.58,0000.40,19.5,25.9,04.0,02.7,0664.7,31.2
2021-07-06T02:07:00Z,00000200,00000000,0000.20,-000.15,0000.22,0000.53,-000.13,0000.07,0000.30,0000.30,-000.04,19.6,25.9,04.3,02.9,0664.7,31.2
2021-07-06T02:08:00Z,00000200,00000000,0000.32,0000.29,0000.60,0000.34,-000.07,0000.31,-000.11,-000.13,0000.05,19.7,26.0,04.3,02.9,0664.7,31.2
2021-07-06T02:09:00Z,00000200,00000000,-000.16,-000.20,0000.01,0000.27,-000.25,0000.28,-000.04,0000.28,0000.09,19.7,26.1,04.3,02.9,0664.7,31.2
2021-07-06T02:10:00Z,00000200,00000000,0000.31,-000.05,0000.18,-000.01,-000.24,0000.47,-000.45,-000.36,-000.19,19.8,26.1,04.1,02.8,0664.7,31.3
2021-07-06T02:11:00Z,00000200,00000000,0000.17,-000.09,0000.28,0000.92,-000.08,0000.36,0000.94,0000.40,0000.33,19.8,26.1,04.3,02.9,0664.7,31.3
2021-07-06T02:12:00Z,00000200,00000000,-000.18,-000.04,0000.60,0000.40,-000.04,0000.36,-000.68,-000.14,-000.29,19.7,26.1,04.4,03.0,0664.7,31.2
2021-07-06T02:13:00Z,00000200,00000000,-000.34,0000.16,0000.17,-000.16,-000.13,0000.28,0000.73,0000.05,0000.29,19.7,26.1,04.3,02.9,0664.7,31.2
2021-07-06T02:14:00Z,00000200,00000000,0000.06,0000.04,0000.26,-000.15,-000.06,0000.46,0000.05,0000.11,0000.03,19.7,26.0,04.5,03.0,0664.7,31.2
2021-07-06T02:15:00Z,00000200,00000000,-000.22,0000.15,0000.06,0000.12,0000.09,0000.18,0000.02,-000.01,0000.07,19.6,26.0,04.4,03.0,0664.7,31.2
2021-07-06T02:16:00Z,00000200,00000000,-000.51,0000.06,-000.15,0000.41,-000.38,-000.11,-000.35,-000.03,-000.12,19.6,26.0,04.5,03.1,0664.7,31.2
2021-07-06T02:17:00Z,00000200,00000000,0000.64,-000.07,0000.00,0000.39,-000.15,-000.05,0000.15,0000.37,0000.25,19.6,25.9,04.7,03.2,0664.6,31.2
2021-07-06T02:18:00Z,00000200,00000000,0000.38,0000.48,0000.40,-000.22,0000.17,0000.38,0002.04,0001.62,0001.21,19.5,25.9,05.4,03.6,0664.7,31.2
2021-07-06T02:19:00Z,00000200,00000000,0000.43,-000.17,0000.37,0000.42,-000.09,0000.07,-000.79,-000.86,-000.17,19.5,25.9,05.4,03.6,0664.7,31.2
2021-07-06T02:20:00Z,00000200,00000000,0000.14,0000.30,0000.22,-000.28,0000.24,0000.19,0000.46,0000.29,-000.40,19.5,25.9,05.0,03.4,0664.7,31.2
2021-07-06T02:21:00Z,00000200,00000000,0000.54,0000.46,0000.29,0000.34,0000.15,0000.12,0000.48,0000.95,0001.13,19.5,25.9,05.2,03.5,0664.7,31.2
2021-07-06T02:22:00Z,00000200,00000000,-000.05,-000.18,-000.22,0000.53,0000.02,0000.14,-000.26,-000.46,-000.51,19.6,25.9,05.4,03.7,0664.7,31.2
2021-07-06T02:23:00Z,00000200,00000000,0000.02,0000.26,-000.04,0000.56,-000.12,-000.04,-000.58,-000.52,-000.10,19.7,25.9,05.0,03.4,0664.7,31.2
2021-07-06T02:24:00Z,00000200,00000000,0000.15,-000.03,0000.09,-000.28,0000.21,-000.11,0000.07,0000.04,-000.11,19.7,26.0,04.9,03.3,0664.7,31.2
2021-07-06T02:25:00Z,00000200,00000000,0000.18,0000.15,0000.20,0000.31,-000.07,0000.14,-000.20,-000.04,0000.04,19.8,26.0,04.8,03.3,0664.7,31.2
2021-07-06T02:26:00Z,00000200,00000000,-000.01,0000.00,-000.19,-000.30,-000.05,0000.19,0000.13,-000.18,0000.07,19.8,26.1,04.8,03.3,0664.7,31.3
2021-07-06T02:27:00Z,00000200,00000000,0000.90,0000.28,0000.40,0000.28,0000.19,0000.40,0000.04,0000.18,-000.21,19.8,26.0,04.7,03.2,0664.7,31.2
2021-07-06T02:28:00Z,00000200,00000000,0000.23,-000.17,0000.05,0000.29,-000.14,0000.24,0000.20,0000.04,0000.16,19.7,26.0,04.8,03.3,0664.7,31.2
2021-07-06T02:29:00Z,00000200,00000000,0000.81,-000.00,0000.07,0000.07,0000.02,-000.04,-000.10,-000.17,-000.21,19.7,26.0,04.9,03.4,0664.8,31.2
2021-07-06T02:30:00Z,00000200,00000000,-000.07,0000.07,0000.39,0000.69,0000.18,0000.29,-000.14,0000.32,0000.18,19.7,25.9,04.8,03.3,0664.8,31.2
2021-07-06T02:31:00Z,00000200,00000000,0000.11,0000.09,0000.38,0000.18,0000.24,0000.51,0000.16,-000.15,0000.03,19.6,25.9,04.7,03.2,0664.8,31.2
2021-07-06T02:32:00Z,00000200,00000000,-000.49,0000.13,-000.16,0000.48,-000.14,-000.04,0000.13,-000.27,-000.45,19.6,25.9,04.8,03.3,0664.8,31.2
2021-07-06T02:33:00Z,00000200,00000000,-000.11,0000.12,0000.09,0000.45,0000.00,0000.13,-000.02,0000.30,0000.45,19.5,25.9,04.9,03.3,0664.8,31.2
2021-07-06T02:34:00Z,00000200,00000000,0000.17,0000.14,0000.32,0000.55,-000.30,0000.17,-000.26,0000.14,-000.21,19.5,25.8,05.0,03.4,0664.7,31.2
2021-07-06T02:35:00Z,00000200,00000000,-000.11,-000.17,-000.04,0000.22,-000.10,0000.11,0000.46,0000.01,0000.50,19.5,25.8,05.0,03.4,0664.7,31.2
2021-07-06T02:36:00Z,00000200,00000000,0000.10,0000.05,0000.23,0000.08,0000.06,0000.24,0000.03,0000.15,-000.04,19.5,25.8,04.9,03.4,0664.8,31.2
2021-07-06T02:37:00Z,00000200,00000000,-000.08,-000.15,0000.06,-000.08,-000.07,0000.26,-000.34,-000.18,-000.13,19.6,25.8,04.9,03.4,0664.8,31.2
2021-07-06T02:38:00Z,00000200,00000000,0000.76,-000.04,0000.24,0000.60,-000.19,-000.07,0000.11,0000.08,0000.03,19.7,25.9,04.9,03.3,0664.8,31.2
2021-07-06T02:39:00Z,00000200,00000000,0000.73,-000.11,0000.01,0000.26,0000.05,0000.34,0000.41,0000.05,0000.04,19.7,25.9,04.9,03.4,0664.8,31.2
2021-07-06T02:40:00Z,00000200,00000000,0000.48,0000.02,0000.16,0000.14,-000.04,0000.46,-000.54,-000.22,-000.15,19.8,26.0,04.9,03.3,0664.8,31.2
2021-07-06T02:41:00Z,00000200,00000000,0000.07,-000.28,0000.09,-000.03,-000.06,0000.02,0000.27,0000.08,0000.02,19.8,26.0,05.0,03.4,0664.8,31.2
2021-07-06T02:42:00Z,00000200,00000000,0000.04,0000.09,0000.28,-000.05,-000.10,0000.11,-000.00,0000.14,0000.02,19.8,26.0,05.0,03.4,0664.8,31.2
2021-07-06T02:43:00Z,00000200,00000000,0000.49,-000.15,0000.02,0000.26,0000.01,0000.09,-000.10,-000.24,-000.25,19.8,26.0,04.9,03.3,0664.8,31.2
2021-07-06T02:44:00Z,00000200,00000000,0000.43,0000.21,0000.34,0000.51,0000.11,0000.25,-000.12,0000.41,0000.37,19.7,25.9,05.0,03.4,0664.8,31.2
2021-07-06T02:45:00Z,00000200,00000000,-000.01,-000.03,-000.04,-000.16,0000.00,-000.01,0000.56,-000.29,-000.15,19.7,25.9,05.1,03.5,0664.8,31.2
2021-07-06T02:46:00Z,00000200,00000000,0000.91,0000.15,0000.28,0000.39,0000.19,0000.23,-000.17,0000.10,0000.26,19.6,25.9,05.1,03.5,0664.8,31.2
2021-07-06T02:47:00Z,00000200,00000000,0000.37,-000.07,0000.28,0000.10,-000.11,0000.24,-000.01,0000.28,-000.19,19.6,25.9,05.2,03.5,0664.8,31.2
2021-07-06T02:48:00Z,00000200,00000000,0000.02,-000.18,0000.08,0000.33,-000.18,0000.09,0000.05,-000.23,-000.04,19.5,25.9,05.2,03.5,0664.7,31.2
2021-07-06T02:49:00Z,00000200,00000000,0000.28,-000.30,0000.34,0000.50,0000.17,-000.09,-000.01,0000.29,0000.18,19.5,25.8,05.2,03.5,0664.7,31.2
2021-07-06T02:50:00Z,00000200,00000000,-000.37,-000.14,0000.13,0000.55,-000.16,-000.17,-000.02,-000.20,-000.05,19.5,25.8,05.3,03.6,0664.7,31.2
2021-07-06T02:51:00Z,00000200,00000000,0000.62,0000.13,0000.10,-000.15,-000.08,0000.23,0000.08,0000.03,0000.29,19.5,25.8,05.2,03.6,0664.7,31.2
2021-07-06T02:52:00Z,00000200,00000000,0000.02,0000.12,0000.14,-000.09,0000.25,0000.19,0000.23,-000.27,-000.33,19.6,25.8,05.2,03.5,0664.7,31.2
2021-07-06T02:53:00Z,00000200,00000000,0000.30,0000.04,0000.13,-000.03,0000.09,0000.33,-000.14,0000.75,0000.41,19.7,25.9,05.1,03.5,0664.8,31.2
2021-07-06T02:54:00Z,00000200,00000000,-000.15,-000.26,-000.15,-000.09,-000.19,0000.41,-000.16,-000.60,-000.38,19.7,25.9,05.1,03.5,0664.8,31.2
2021-07-06T02:55:00Z,00000200,00000000,0000.27,-000.23,-000.13,0000.33,0000.00,0000.47,0000.11,0000.39,-000.22,19.8,26.0,05.0,03.4,0664.8,31.2
2021-07-06T02:56:00Z,00000200,00000000,0000.47,0000.19,0000.08,-000.15,0000.08,0000.33,-000.16,-000.52,0000.03,19.8,26.0,05.0,03.5,0664.8,31.3
2021-07-06T02:57:00Z,00000200,40000000,,,,,,,-000.12,0000.20,-000.16,19.9,26.0,04.3,03.0,0664.7,31.2
2021-07-06T02:58:00Z,00000200,60000000,,,,,,,0000.20,-000.20,0000.12,19.5,26.1,04.9,03.3,0663.8,31.2
2021-07-06T02:59:00Z,00000200,20000000,,,,,,,0000.05,0000.27,0000.16,19.5,26.2,05.0,03.3,0663.8,31.2
